sat.trackr.live / text

‹ back to catalog

STARLINK-31595

NORAD 59273 · 2024-050V

PAYLOAD ACTIVE UNKNOWN

§ Identity

Operator
Country
US
Launch date
2024-03-19
Launch site
AFWTR
Launch vehicle
Mass (kg)
RCS (m²)

Purposes: comms

External: N2YO · Heavens-Above · Gunter

§ Orbital elements

Epoch: 2026-09-20T13:13:48.052704Z

Period
93.85 min
Inclination
53.1601°
Eccentricity
0.0001115
Mean motion
15.34395149 rev/d
Perigee alt
462.0 km
Apogee alt
463.5 km
Semi-major
6,840.9 km
B*
3.4955e-5
RAAN
355.1262°
Arg perigee
80.4369°
Mean anomaly
279.6759°
Rev number
14,039

§ Raw data

STARLINK-315951 59273U 24050V   26263.55125061  .00000805  00000+0  34955-4 0  99932 59273  53.1601 355.1262 0001115  80.4369 279.6759 15.34395149140392

JSON: /api/v1/satellites/59273 · /tle

For live sub-satellite position, see the globe view (requires WebGL).

§ Visibility from observer

Set your observer location to see the next 7 days of passes ≥ 10°. The values pass through the URL so the page stays shareable.

No JS? Fill the form by hand. The geolocation button needs JavaScript.